Regional Weather Roundup
Issued by NWS State College, PA

Home | Current Version | Previous Version | Text Only | Print | Product List | Glossary On
Versions: 1 2 3 4 5 6 7 8 9 10 11 12 13 14 15 16 17 18 19 20 21 22 23 24 25 26 27 28 29 30 31 32 33 34 35 36 37 38 39 40 41 42 43 44 45 46 47 48 49 50
000
ASUS41 KCTP 231203
RWRCTP

REGIONAL WEATHER ROUNDUP
NATIONAL WEATHER SERVICE STATE COLLEGE PA
700 AM EST THU FEB 23 2017

Note: "fair" indicates few or no clouds below 12,000 feet with no
significant weather and/or obstructions to visibility.

* = STATION THAT DOES NOT REPORT PRECIPITATION /E.G. RAIN...SNOW...ETC/
    THUNDER OR FOG.

PAZ002>004-007>009-013>016-020>023-029>032-231300-
WESTERN PENNSYLVANIA

CITY           SKY/WX    TMP DP  RH WIND       PRES   REMARKS
ERIE           PTCLDY    58  52  80 S18       29.71S
MEADVILLE      CLOUDY    54  51  90 SW12      29.75F
FRANKLIN*      CLOUDY    54  48  82 SW12G17   29.79F
NEW CASTLE     CLOUDY    55  53  93 VRB3      29.79
BEAVER COUNTY  NOT AVBL
BUTLER*        MOCLDY    55  50  82 S9        29.81S
PITTSBURGH INT CLOUDY    54  53  97 S3        29.81S
PITTSBURGH     CLOUDY    54  51  90 S8        29.82R
INDIANA*       CLOUDY    54  54 100 SW6       29.85S
LATROBE        CLOUDY    54  54 100 SW9       29.84S
WASHINGTON CO* MOCLDY    54  52  94 SW6       29.84S
$$

PAZ004>006-010>012-017>019-024>028-033>037-041-042-045-046-049>053-231300-
CENTRAL PENNSYLVANIA

CITY           SKY/WX    TMP DP  RH WIND       PRES   REMARKS
BRADFORD       CLOUDY    51  50  96 S5        29.78S
DUBOIS         CLOUDY    53  49  86 SW6       29.80S
CLEARFIELD       N/A    N/A N/A N/A MISG      29.82R
JOHNSTOWN      CLOUDY    52  51  97 S13       29.84R
ALTOONA        MOCLDY    54  51  90 S5        29.84S
STATE COLLEGE  PTCLDY    39  37  93 CALM      29.84R
WILLIAMSPORT   MOCLDY    37  34  89 CALM      29.85S
SELINSGROVE    CLEAR     31  31 100 CALM      29.87R FOG
FT INDIANTOWN  PTCLDY    36  36 100 CALM      29.88R FOG
CAPITAL CITY   PTCLDY    44  40  85 CALM      29.88R HAZE
HARRISBURG     CLOUDY    44  44 100 SE6       29.88R FOG
YORK           CLOUDY    45  44  97 CALM      29.88R FOG
$$

PAZ038>040-043-044-047-048-054-055-060>062-067>071-231300-
EASTERN PENNSYLVANIA

CITY           SKY/WX    TMP DP  RH WIND       PRES   REMARKS
SCRANTON       CLEAR     38  36  92 CALM      29.86R FOG
MOUNT POCONO   CLEAR     44  44 100 W6        29.85R
ALLENTOWN      CLEAR     34  31  88 CALM      29.89R HAZE
QUAKERTOWN*    CLOUDY    37  37 100 CALM      29.90R VSB<1/4
READING        CLOUDY    40  39  97 CALM      29.89R
LANCASTER      FOG       43  43 100 E3        29.89R VSB 1/4
COATESVILLE    FOG       48  48 100 VRB5      29.90R VSB<1/4
POTTSTOWN      FOG       44  44 100 CALM      29.90S VSB 1/4
BLUE BELL      CLOUDY    43  43 100 CALM      29.89R VSB 1/4
DOYLESTOWN     FOG       45  44  97 CALM      29.88S VSB 1/4
WILLOW GROVE   NOT AVBL
NORTH PHILA    FOG       50  49  96 CALM      29.91R VSB 1/4
PHILADELPHIA   FOG       49  48  97 CALM      29.91R VSB 1/2
$$




USA.gov is the U.S. government's official web portal to all federal, state and local government web resources and services.